This is the latest recevied weather packets stored in our database for station/object DB0WUN-13. If no packets are shown the sender has not sent any weather packets the latest 10 day(s).
| Time | Temp. | Humidity | Pressure | Rain* | Wind** | Luminosity | Snow |
|---|---|---|---|---|---|---|---|
| 1777280055 | 11.11° C | 46% | 1023.1 hPa | 0 mm | - | 759 W/m² | - |
| 1777279990 | 11.11° C | 46% | 1023.1 hPa | 0 mm | - | 754 W/m² | - |
| 1777279929 | 11.11° C | 45% | 1023.2 hPa | 0 mm | - | 756 W/m² | - |
| 1777279870 | 11.11° C | 45% | 1023.1 hPa | 0 mm | - | 759 W/m² | - |
| 1777279816 | 11.11° C | 44% | 1023.2 hPa | 0 mm | - | 761 W/m² | - |
| 1777279748 | 11.11° C | 46% | 1023.1 hPa | 0 mm | - | 752 W/m² | - |
| 1777279691 | 11.11° C | 46% | 1023.2 hPa | 0 mm | - | 754 W/m² | - |
| 1777279624 | 10.56° C | 45% | 1023.2 hPa | 0 mm | - | 756 W/m² | - |
| 1777279565 | 10.56° C | 46% | 1023.2 hPa | 0 mm | - | 751 W/m² | - |
| 1777279514 | 10.56° C | 45% | 1023.2 hPa | 0 mm | - | 738 W/m² | - |
| 1777279445 | 10.56° C | 46% | 1023.2 hPa | 0 mm | - | 733 W/m² | - |
| 1777279387 | 10.56° C | 45% | 1023.3 hPa | 0 mm | - | 668 W/m² | - |
| 1777279326 | 10.56° C | 48% | 1023.2 hPa | 0 mm | - | 712 W/m² | - |
| 1777279259 | 10.56° C | 47% | 1023.2 hPa | 0 mm | - | 712 W/m² | - |
| 1777279200 | 10.56° C | 46% | 1023.2 hPa | 0 mm | - | 721 W/m² | - |
| 1777279138 | 10.56° C | 47% | 1023.2 hPa | 0 mm | - | 710 W/m² | - |
| 1777279079 | 10.56° C | 45% | 1023.1 hPa | 0 mm | - | 721 W/m² | - |
| 1777279019 | 10.56° C | 46% | 1023.2 hPa | 0 mm | - | 726 W/m² | - |
| 1777278950 | 10.56° C | 47% | 1023.1 hPa | 0 mm | - | 726 W/m² | - |
| 1777278894 | 10.56° C | 46% | 1023.2 hPa | 0 mm | - | 724 W/m² | - |
| 1777278835 | 10.56° C | 47% | 1023.1 hPa | 0 mm | - | 719 W/m² | - |
| 1777278772 | 10.56° C | 47% | 1023.2 hPa | 0 mm | - | 696 W/m² | - |
| 1777278715 | 10.56° C | 47% | 1023.1 hPa | 0 mm | - | 696 W/m² | - |
| 1777278652 | 10.56° C | 49% | 1023.2 hPa | 0 mm | - | 677 W/m² | - |
| 1777278592 | 10.56° C | 50% | 1023.2 hPa | 0 mm | - | 693 W/m² | - |
* Rain latest hour (hover to see other rain measurements)
** Current wind speed in m/s (hover to see current wind gust speed)